SL-8 DEB, 1392

Orbit data source: Space-Track

SL-8 DEB, 1392 is space debris in LEO originally from a launch on Mon, 15 Mar 1965 UTC launched from the Tyuratam Missile And Space Complex (TTMTR). Debris objects in space refer to the collection of defunct objects orbiting the Earth. Examples of debris include non-operational satellites, rocket bodies, and fragments generated from explosions, collisions, or faulty payload assembly.

Loading next visibility...
Identifier
1392, 1965-020AH
Orbit
LEO
Country
Flag of CISCIS
Related business
Manufacturer
Unknown
Mission
Spacecraft
Bus & Motor
Unknown
Mass
Unknown
Launch date (UTC)
1965-03-15 (61 years ago)
Launch vehicle
Unknown
Launch site
Tyuratam Missile And Space Complex (TTMTR)
Object type
Payload
Rocket body
Debris
Shape & HBR
Unknown shape, 0.2 m
Radar Cross Section
Medium (>0.1 m² and <1 m²)

Expand to show TLE details & history
Last TLE update: 11 hours ago

TLE from 11 hours ago
0 SL-8 DEB
1 01392U 65020AH  25286.97975055  .00028518  00000-0  16363-2 0  9993
2 01392  55.8627 181.4750 0172291 243.7886 114.5335 15.00668260 58937
Epoch: 2025-10-13T23:30Z
TLE epoch observation values (Epoch: 2025-10-13T23:30:50.447Z)
Latitude
-0.00004°
Longitude
165.99002°
Altitude
617.362 km
Speed
7.523 km/s
True Right ascension
12h 05m 53s
True Declination
0° 00' 00"
Sunlit
Object was in daylight at epoch
Visualization orbit readout
Latitude
Unknown
Longitude
Unknown
Altitude
Unknown
Speed
Unknown
Apparent Right ascension
Unknown
Apparent Declination
Unknown
Sunlit
N/A
Visualization observer readout
Local Sidereal Time
04:43:02
Azimuth
Unknown
Elevation
Unknown
Doppler factor
Unknown
Orbital elements
Apogee altitude
684.282 km
Perigee altitude
445.045 km
Semi-major axis
6,942.8 km
Eccentricity
0.01723
Inclination
55.8627°
RAAN
181.475°
Arg. of periapsis
243.7886°
True anomaly
116.31336°
Mean anomaly
114.5335°
Eccentric anomaly
115.42505°
Mean motion
3.75181 °/min
Orbital period
95.95 mins
BSTAR
0.0016363
Loading maneuver chart data...
Computing Atmospheric mass density...
Loading historical data...
Loading historical data...
Loading historical data...
Loading historical data...
Loading historical data...
Loading historical data...
Loading historical data...

Documentation

Showing up to 5 results
|